Temp
3 3 3 3 3 3 4 4 4 5 5 5 5 4 4 4 4 5 6 5 5 4 3 3 3 4 4 4 4 5 3 5 5 5 6 7 8 8 8 7 9 9 9 9 9
3 3 3 3 2 2 2 2 3 3 4 4 4 4 4 4 5 5 4 5 4 5 3 3 3 3 3 4 4 4 3 5 5 5 5 6 7 8 8 8 9 9 9 9 9
3 3 3 2 2 2 1 1 1 2 2 3 3 3 3 4 5 4 4 5 4 4 4 2 2 2 2 3 4 4 3 5 4 4 6 6 7 8 8 8 9 9 9 9 9
3 2 3 2 1 1 1 1 1 1 1 1 2 2 3 3 2 3 4 4 4 4 4 3 2 2 2 2 4 2 3 5 4 4 6 6 5 7 8 8 8 9 9 9 8
2 1 1 0 0 0 0 0 0 1 0 1 1 1 2 2 4 2 2 3 3 3 3 3 3 2 2 2 3 2 3 3 5 3 4 6 5 6 7 8 8 8 9 8 8
1 0 -0 -0 -0 -0 -0 0 -0 -0 -0 0 0 0 0 1 3 3 2 2 2 3 2 2 2 2 0 1 2 2 4 4 4 4 5 4 6 5 7 7 8 8 8 8 8
1 0 -0 -0 -1 -1 -1 -0 -0 -1 -0 -1 -0 0 0 2 1 1 1 1 1 1 1 1 1 0 -0 1 1 1 2 3 3 3 3 3 4 4 7 6 7 8 8 8 8
0 0 -0 -1 -1 -1 -1 -0 -1 -1 -1 -1 -1 -1 -0 1 1 1 0 1 -0 0 -1 -0 -0 -0 0 0 0 1 1 2 3 3 3 3 5 6 7 6 7 8 8 8 8
0 -0 -1 -1 -2 -2 -2 -1 -2 -2 -2 -1 -1 -2 -0 0 -0 -1 -0 -0 -0 -1 -1 -1 -0 -1 -0 -0 -0 1 3 3 3 3 3 3 4 5 5 6 6 7 7 8 8
-0 -1 -1 -1 -2 -2 -2 -2 -3 -3 -3 -3 -2 -2 -1 -2 -2 -3 -2 -1 -1 -1 -1 -1 -1 -1 -1 -1 -0 1 2 4 4 4 2 3 3 5 6 5 6 6 6 7 7
-0 -1 -1 -1 -2 -3 -3 -2 -3 -4 -3 -4 -3 -2 -2 -4 -4 -2 -4 -3 -3 -2 -1 -2 -2 -2 -1 -0 0 2 3 3 4 3 3 3 4 4 5 7 6 6 6 6 7
-0 -1 -1 -1 -3 -3 -3 -3 -4 -5 -4 -3 -2 -3 -5 -4 -3 -4 -3 -4 -4 -5 -4 -4 -3 -2 -1 -1 -0 -0 1 2 3 3 2 3 3 4 4 6 7 7 6 6 7
-1 -1 -1 -2 -4 -4 -4 -5 -6 -7 -7 -4 -4 -5 -5 -5 -4 -5 -5 -6 -5 -6 -6 -4 -2 -2 -1 -1 -1 -1 -0 0 2 2 2 2 3 3 5 4 6 7 7 7 7
-1 -1 -1 -4 -4 -5 -6 -6 -7 -8 -8 -5 -6 -6 -6 -5 -5 -5 -6 -6 -6 -6 -6 -5 -4 -3 -2 -1 -1 -1 -0 -0 0 1 2 2 5 5 5 5 6 6 7 8 7
-1 -1 -2 -4 -5 -5 -7 -8 -8 -9 -8 -6 -6 -7 -8 -7 -7 -7 -6 -6 -5 -7 -5 -5 -4 -4 -2 -1 -1 -0 -0 -0 -0 -1 2 1 2 5 6 5 5 6 7 8 8
-2 -2 -3 -5 -5 -7 -7 -8 -9 -10 -8 -7 -7 -8 -7 -8 -7 -6 -6 -6 -6 -7 -7 -6 -4 -4 -2 -2 -1 -1 -1 -0 -0 -1 -0 1 2 5 5 5 5 5 7 7 8
-2 -2 -4 -6 -6 -7 -8 -8 -10 -10 -7 -8 -8 -8 -8 -7 -7 -8 -8 -8 -7 -6 -6 -5 -5 -4 -4 -3 -1 -1 -1 -0 -0 -1 1 1 1 4 6 6 5 7 8 8 8
-2 -4 -5 -6 -7 -8 -8 -9 -12 -8 -7 -7 -8 -8 -8 -8 -9 -10 -9 -8 -8 -7 -7 -5 -2 -4 -4 -3 -2 -2 -1 1 1 2 4 4 3 3 5 7 7 6 9 8 9
-3 -5 -6 -7 -7 -8 -9 -10 -9 -9 -9 -9 -10 -10 -9 -10 -10 -10 -9 -8 -8 -8 -8 -7 -5 -4 -4 -3 -2 -2 -2 -1 -0 1 5 4 4 5 4 6 6 8 7 9 9
-4 -5 -6 -7 -8 -9 -9 -9 -9 -10 -9 -10 -11 -11 -11 -10 -10 -10 -9 -8 -8 -9 -8 -7 -7 -4 -3 -3 -2 -2 -1 -1 -1 1 1 4 5 6 5 6 7 8 9 9 9
-5 -6 -6 -8 -9 -9 -9 -9 -9 -10 -10 -11 -11 -11 -11 -11 -10 -10 -9 -8 -9 -9 -8 -8 -8 -5 -5 -4 -2 -2 -1 -1 -0 -0 2 4 6 5 5 7 7 8 9 9 8
-5 -6 -7 -8 -9 -9 -9 -9 -10 -11 -11 -11 -11 -11 -11 -11 -11 -10 -9 -9 -9 -9 -8 -8 -8 -7 -5 -3 -3 -1 -0 -0 -0 -1 2 5 7 6 6 7 7 8 8 8 7
-5 -7 -8 -9 -9 -9 -9 -10 -10 -11 -11 -11 -11 -11 -11 -11 -10 -10 -9 -9 -9 -9 -8 -8 -8 -6 -3 -3 -4 -2 -1 0 0 3 3 5 6 5 7 7 7 6 7 8 8
-7 -8 -9 -9 -8 -9 -10 -10 -11 -11 -11 -11 -12 -11 -11 -11 -11 -10 -10 -10 -9 -9 -9 -9 -8 -8 -6 -7 -8 -7 -6 -2 -0 1 2 4 5 5 6 6 6 6 6 6 7
-7 -7 -7 -9 -8 -9 -9 -10 -11 -11 -11 -11 -11 -11 -11 -12 -11 -11 -11 -9 -9 -9 -9 -9 -9 -9 -8 -9 -8 -7 -6 -6 -4 -0 2 4 3 4 5 6 6 6 7 7 7
-7 -7 -7 -8 -8 -9 -10 -9 -10 -11 -12 -12 -12 -12 -12 -12 -11 -11 -12 -11 -10 -9 -9 -9 -9 -10 -8 -7 -8 -8 -7 -7 -5 -3 1 2 3 3 3 6 6 6 7 7 7
-7 -7 -7 -7 -8 -9 -9 -9 -9 -11 -11 -11 -12 -12 -11 -11 -12 -12 -12 -11 -11 -10 -10 -10 -10 -10 -8 -7 -7 -5 -4 -4 -3 -4 -1 1 3 3 2 4 5 5 6 6 6
Height
3117 3113 3110 3107 3104 3101 3098 3095 3091 3088 3085 3081 3079 3077 3075 3074 3075 3076 3075 3085 3085 3089 3087 3091 3092 3093 3094 3094 3095 3097 3097 3093 3095 3098 3099 3100 3101 3104 3107 3109 3111 3114 3116 3119 3121
3112 3109 3105 3101 3097 3093 3090 3087 3084 3080 3078 3075 3072 3069 3067 3066 3067 3069 3069 3071 3076 3079 3079 3083 3087 3087 3086 3088 3087 3087 3086 3086 3093 3095 3096 3098 3099 3102 3104 3105 3106 3110 3114 3116 3118
3106 3102 3097 3094 3089 3086 3083 3080 3077 3074 3070 3067 3066 3063 3060 3060 3061 3056 3057 3060 3065 3067 3067 3073 3079 3080 3078 3080 3080 3079 3077 3084 3086 3088 3092 3094 3095 3096 3099 3100 3104 3108 3111 3113 3115
3099 3094 3090 3087 3084 3079 3076 3073 3069 3066 3063 3061 3058 3056 3053 3054 3056 3049 3053 3054 3056 3058 3059 3066 3069 3070 3071 3070 3074 3074 3075 3078 3083 3084 3087 3089 3090 3091 3093 3100 3103 3106 3107 3110 3112
3092 3088 3084 3079 3075 3073 3069 3066 3062 3058 3056 3054 3051 3047 3044 3041 3045 3048 3047 3048 3051 3051 3052 3057 3060 3063 3061 3066 3070 3067 3072 3074 3076 3078 3081 3085 3085 3087 3087 3092 3095 3099 3102 3105 3108
3085 3080 3075 3070 3065 3062 3061 3058 3054 3052 3049 3045 3043 3039 3033 3028 3042 3040 3037 3039 3043 3043 3045 3049 3049 3054 3057 3059 3060 3064 3066 3068 3069 3071 3074 3077 3080 3080 3083 3087 3090 3093 3098 3101 3104
3080 3074 3069 3063 3058 3054 3052 3051 3047 3045 3043 3038 3034 3029 3021 3028 3030 3031 3029 3031 3032 3034 3037 3041 3044 3045 3047 3051 3053 3058 3060 3060 3059 3064 3067 3073 3068 3068 3077 3081 3084 3087 3091 3095 3100
3074 3068 3064 3059 3053 3048 3044 3042 3039 3037 3035 3031 3027 3020 3007 3022 3018 3019 3020 3020 3021 3023 3027 3033 3037 3037 3039 3044 3047 3050 3056 3051 3051 3056 3060 3065 3052 3066 3073 3075 3077 3082 3085 3089 3092
3065 3059 3055 3051 3046 3041 3037 3032 3029 3028 3027 3022 3018 3012 3008 3009 3008 3008 3011 3011 3014 3014 3018 3025 3027 3028 3033 3035 3040 3042 3038 3037 3047 3049 3052 3052 3051 3058 3067 3066 3070 3074 3079 3082 3087
3054 3047 3043 3041 3036 3031 3028 3023 3019 3017 3020 3014 3010 3009 3006 3003 3001 3003 3003 3002 3004 3006 3009 3011 3014 3017 3020 3021 3022 3027 3031 3032 3034 3042 3042 3045 3045 3052 3058 3060 3063 3068 3072 3076 3079
3046 3039 3033 3031 3027 3024 3020 3014 3012 3007 3012 3007 3004 2996 2998 2997 2990 2992 2996 2995 2994 2995 2997 3002 3008 3003 3008 3012 3017 3022 3025 3025 3031 3036 3036 3036 3042 3043 3050 3053 3056 3060 3065 3068 3072
3037 3029 3021 3018 3016 3016 3012 3008 3003 3000 2990 2998 2993 2987 2984 2985 2985 2985 2985 2984 2986 2984 2989 2994 2986 2992 3003 3009 3006 3012 3017 3019 3025 3029 3029 3030 3032 3038 3039 3041 3047 3052 3056 3060 3066
3025 3019 3011 3007 3006 3006 3004 3001 2997 2993 2988 2986 2981 2980 2981 2982 2981 2980 2979 2976 2975 2977 2980 2981 2972 2986 2991 2995 2999 3000 3006 3015 3019 3020 3022 3025 3024 3027 3028 3031 3035 3040 3046 3051 3056
3013 3006 3000 2997 2997 2997 2996 2994 2993 2991 2984 2982 2979 2978 2978 2978 2978 2977 2974 2975 2972 2968 2976 2971 2970 2979 2982 2982 2991 2988 2999 3009 3015 3015 3015 3017 3008 3015 3019 3020 3024 3028 3034 3040 3045
3001 2994 2987 2984 2988 2989 2990 2988 2989 2989 2988 2979 2976 2975 2973 2977 2974 2975 2970 2967 2965 2965 2970 2954 2963 2965 2965 2968 2983 2985 2996 3000 3006 3009 3011 3010 3011 3002 3010 3009 3012 3018 3023 3029 3035
2988 2983 2979 2979 2981 2980 2981 2982 2985 2990 2982 2974 2972 2971 2971 2971 2970 2967 2964 2963 2960 2955 2953 2949 2955 2956 2960 2967 2974 2982 2990 2994 2999 3000 2995 2995 3001 2993 2996 2996 3006 3010 3015 3021 3027
2977 2974 2972 2975 2974 2975 2977 2979 2983 2982 2976 2973 2969 2967 2966 2965 2962 2959 2958 2957 2957 2952 2945 2945 2943 2948 2954 2959 2964 2965 2980 2975 2982 2982 2974 2982 2990 2979 2983 2993 2995 3001 3009 3014 3019
2967 2966 2966 2966 2969 2970 2972 2973 2976 2971 2970 2968 2966 2965 2961 2960 2958 2954 2953 2952 2951 2946 2941 2939 2937 2939 2942 2943 2948 2944 2948 2956 2958 2965 2963 2971 2967 2965 2973 2983 2983 2989 2998 3004 3009
2958 2959 2960 2960 2963 2965 2969 2968 2966 2965 2964 2963 2962 2961 2959 2956 2954 2949 2948 2946 2945 2942 2942 2933 2931 2932 2933 2939 2945 2939 2944 2949 2957 2955 2954 2958 2958 2966 2965 2969 2975 2986 2986 2993 2999
2954 2954 2955 2956 2956 2958 2960 2958 2958 2959 2960 2957 2958 2959 2956 2951 2951 2948 2945 2942 2942 2939 2937 2933 2926 2924 2925 2929 2932 2938 2941 2946 2948 2951 2952 2950 2948 2952 2955 2960 2966 2973 2980 2986 2994
2952 2951 2951 2952 2953 2954 2952 2951 2951 2954 2955 2954 2951 2953 2954 2950 2946 2946 2943 2940 2938 2936 2933 2930 2927 2919 2917 2913 2915 2924 2931 2936 2944 2946 2942 2943 2940 2947 2953 2955 2958 2965 2972 2978 2985
2949 2946 2946 2947 2950 2947 2945 2947 2950 2949 2950 2949 2945 2945 2947 2948 2944 2943 2939 2938 2935 2933 2929 2927 2921 2914 2909 2906 2908 2919 2919 2925 2926 2936 2941 2942 2939 2944 2948 2951 2955 2961 2966 2970 2976
2940 2939 2939 2944 2943 2941 2940 2943 2944 2945 2946 2944 2943 2941 2941 2942 2942 2937 2936 2935 2932 2930 2926 2923 2919 2912 2899 2903 2896 2901 2913 2920 2924 2926 2926 2934 2932 2942 2945 2945 2949 2954 2959 2964 2968
2938 2935 2935 2934 2935 2936 2936 2938 2939 2939 2939 2940 2940 2940 2936 2938 2937 2934 2931 2930 2929 2928 2925 2921 2915 2914 2913 2910 2908 2901 2897 2905 2913 2918 2922 2927 2931 2940 2943 2945 2947 2950 2954 2958 2963
2927 2925 2924 2921 2921 2926 2930 2931 2933 2934 2934 2934 2934 2935 2933 2933 2932 2931 2929 2927 2926 2925 2922 2920 2914 2913 2911 2912 2908 2904 2899 2899 2900 2909 2913 2922 2924 2934 2940 2942 2946 2948 2952 2956 2960
2921 2920 2918 2918 2919 2919 2921 2922 2925 2928 2929 2929 2929 2931 2930 2928 2929 2926 2927 2925 2923 2923 2919 2916 2914 2910 2906 2906 2904 2901 2899 2899 2897 2900 2911 2916 2914 2929 2935 2938 2941 2947 2952 2956 2961
2910 2911 2913 2910 2911 2911 2911 2915 2917 2921 2922 2922 2924 2925 2923 2924 2922 2921 2920 2920 2920 2919 2917 2915 2914 2913 2906 2902 2897 2892 2888 2889 2895 2897 2900 2904 2902 2922 2925 2928 2936 2946 2951 2957 2960
Wind_Speed
29 29 29 29 30 30 29 28 29 31 33 33 35 36 36 36 36 35 40 31 32 30 36 29 25 26 28 28 27 26 27 31 31 21 21 14 23 28 26 21 33 30 27 20 17
31 32 33 33 33 32 31 29 28 30 31 32 33 34 36 36 35 33 35 33 32 32 36 36 31 29 32 31 32 33 32 33 23 26 15 17 20 27 27 28 36 32 27 22 20
34 34 35 35 36 36 34 31 29 28 29 30 32 34 35 34 34 34 33 32 32 35 38 36 33 33 37 35 36 37 38 31 24 26 22 18 21 26 28 31 35 33 28 23 19
41 41 40 38 37 36 37 35 32 30 29 29 30 33 34 34 23 27 23 19 25 36 41 36 38 39 41 41 40 35 34 36 28 26 22 26 23 23 29 24 30 32 28 21 17
45 44 43 40 38 39 38 36 36 35 32 29 29 32 35 38 34 32 33 35 31 29 31 36 40 43 45 37 38 38 37 32 37 33 34 28 29 23 30 32 32 35 28 24 16
50 49 48 48 45 44 45 41 37 35 33 32 31 33 37 43 28 29 28 29 30 32 32 28 37 42 35 38 37 32 40 39 36 35 34 36 36 29 30 34 36 34 32 29 24
52 53 51 52 49 49 49 46 41 35 32 31 32 35 43 34 29 27 30 28 27 31 33 32 34 34 34 36 40 37 33 35 40 36 31 32 43 41 35 32 37 39 36 31 30
47 51 49 49 47 50 51 47 43 35 30 30 32 36 45 29 30 28 29 30 34 32 38 32 31 35 35 31 24 29 34 40 42 34 37 36 47 44 36 33 38 39 37 35 34
54 52 50 51 49 53 50 45 41 35 28 29 29 33 37 19 18 14 14 21 29 38 40 37 34 35 35 34 25 30 36 46 36 33 31 41 41 41 33 40 38 37 40 38 34
56 56 55 52 55 52 47 43 40 36 29 24 26 25 21 18 22 27 26 25 23 31 42 46 47 42 41 39 33 37 43 42 38 33 33 36 38 35 36 40 42 36 34 40 39
54 60 62 58 56 46 41 41 41 41 24 26 28 33 29 29 36 33 29 30 27 30 37 41 44 48 43 44 48 43 41 39 36 27 22 34 37 37 37 43 47 42 37 39 40
52 58 65 64 54 40 35 36 37 37 41 22 23 28 23 21 20 16 21 34 36 34 26 32 50 57 48 46 45 46 38 34 28 32 27 19 27 34 34 45 51 49 45 44 43
50 56 62 61 43 33 30 31 30 32 33 24 10 7 8 9 13 6 10 16 32 36 28 35 57 51 47 48 48 48 46 35 25 23 28 24 32 34 35 36 45 52 52 51 48
47 57 63 49 40 29 25 25 23 22 20 6 2 5 10 13 5 9 10 15 20 30 29 32 41 40 51 54 53 44 44 37 28 15 18 23 19 31 36 41 43 45 53 55 54
45 57 61 46 33 26 24 20 15 14 5 6 5 6 10 9 18 14 15 23 24 24 24 41 31 46 48 61 53 45 39 40 35 33 28 20 16 30 26 29 34 44 42 46 50
47 56 52 38 27 25 21 15 9 3 8 4 6 9 16 14 21 28 28 23 26 27 30 41 36 31 55 41 51 44 32 33 31 33 22 41 33 30 38 41 31 28 36 41 38
43 52 44 29 28 23 17 11 1 6 5 5 8 14 22 28 24 16 16 15 13 15 23 33 48 35 33 41 50 54 44 11 11 11 8 33 31 41 29 37 35 41 34 33 35
44 44 29 29 27 22 14 7 7 9 14 13 18 22 16 11 11 8 15 17 14 16 26 18 26 42 38 48 43 63 46 26 13 7 14 28 19 34 40 33 6 29 49 37 37
42 34 29 28 28 21 14 9 7 10 11 10 16 8 4 7 13 15 14 20 7 10 8 5 20 19 27 41 47 41 53 31 6 12 15 17 27 27 26 31 37 40 18 31 35
32 31 28 29 25 21 16 19 18 14 12 14 8 6 9 10 11 12 10 8 6 9 9 7 14 25 26 27 49 55 41 35 20 8 7 11 23 18 27 40 33 33 41 35 26
34 25 28 29 23 21 25 24 22 15 15 12 7 10 13 16 9 8 7 14 14 9 16 14 9 11 18 19 43 52 42 35 30 25 7 6 10 14 21 14 18 23 26 27 24
22 30 29 27 24 27 31 25 17 11 11 15 16 15 17 11 10 10 14 11 18 17 16 10 10 13 19 30 26 50 53 49 20 11 18 19 19 9 8 12 16 17 15 15 23
30 32 21 19 26 30 31 25 19 18 16 12 9 9 10 12 9 9 15 15 17 16 6 6 6 11 9 8 20 20 55 47 49 37 30 21 23 16 7 19 20 21 21 21 25
30 27 25 28 32 29 28 25 21 17 17 16 16 12 12 14 11 10 10 9 15 18 14 18 18 11 10 12 16 19 16 28 49 38 35 35 35 23 15 7 13 15 17 20 19
30 35 35 28 31 32 29 21 16 13 11 11 13 14 13 11 12 14 8 16 13 11 15 16 15 16 14 17 18 15 13 14 14 47 42 33 42 31 26 16 7 8 14 16 14
39 35 36 39 34 33 30 29 27 18 17 19 20 17 16 19 19 19 17 17 16 17 18 21 12 18 22 15 13 18 22 21 23 20 46 46 49 33 31 36 26 19 9 14 16
35 37 41 42 38 34 32 27 28 16 17 20 20 17 17 17 16 19 20 19 21 20 22 27 18 11 12 11 24 15 12 16 21 18 41 45 49 27 34 42 47 35 22 19 18
Wind_Direction
325 320 317 316 314 310 306 301 296 292 288 285 284 283 281 277 272 267 264 271 259 247 249 242 239 243 241 238 237 235 227 238 237 243 245 246 222 209 206 214 207 209 213 222 233
329 325 322 320 317 315 311 307 303 297 291 287 284 283 282 278 278 275 271 260 252 246 241 242 237 240 242 240 235 227 227 235 239 236 245 243 225 217 216 218 211 213 217 224 234
333 329 327 324 322 319 316 312 307 302 295 289 284 281 280 280 279 279 269 263 250 242 237 234 232 236 237 237 234 235 232 241 235 241 243 233 224 222 221 225 217 214 218 223 236
335 335 329 326 324 323 319 317 314 309 299 293 286 281 278 275 272 268 276 275 258 245 245 232 230 233 236 234 236 237 239 239 238 243 242 230 235 232 224 219 216 213 217 223 236
337 334 330 323 326 329 329 324 318 315 307 297 287 280 274 267 263 269 271 267 259 255 248 243 232 231 237 239 240 237 241 246 240 237 238 234 230 231 221 213 215 212 215 219 224
334 331 328 325 324 329 329 329 322 318 310 300 291 282 275 269 276 268 266 260 255 252 248 236 231 234 239 237 237 241 247 247 247 241 240 234 228 235 219 215 211 213 217 222 221
330 325 324 323 322 323 323 323 320 318 313 302 293 285 276 285 277 267 262 256 251 236 242 232 222 229 236 235 235 238 245 248 244 239 237 235 235 227 217 214 216 217 219 221 221
323 317 316 315 316 316 316 316 315 315 315 305 293 285 281 289 277 265 258 246 241 234 231 220 221 226 229 229 233 232 238 244 237 235 232 231 240 224 219 222 218 218 222 223 220
313 309 309 309 312 310 309 310 311 312 316 306 293 283 290 287 267 278 271 261 238 234 228 221 216 227 227 222 225 223 226 233 241 230 229 224 240 231 223 224 218 219 223 221 219
314 306 307 306 304 304 306 307 309 311 319 307 295 286 285 273 275 279 272 260 253 239 230 223 221 223 221 213 211 217 225 232 237 228 227 229 233 234 230 229 218 217 219 221 221
309 305 300 302 299 299 301 304 308 312 318 304 295 286 276 283 273 271 263 259 251 241 233 228 222 224 221 224 225 228 230 236 231 220 228 233 234 233 231 229 225 223 224 222 221
302 302 295 293 292 293 298 302 305 308 311 310 293 273 274 273 291 288 264 249 246 247 237 219 222 223 223 225 226 226 228 235 237 229 229 220 231 235 235 235 233 228 227 227 228
301 295 288 282 282 288 295 298 304 310 315 328 299 245 264 292 308 290 279 263 247 244 236 231 228 219 218 220 223 228 224 226 234 227 232 235 244 238 232 233 232 233 233 233 233
297 291 283 269 274 287 291 293 302 315 311 316 262 257 263 301 260 313 296 305 278 250 241 240 241 224 225 225 220 221 220 221 220 210 217 217 249 236 240 239 234 231 233 233 232
293 282 272 265 272 281 283 286 306 325 307 302 259 252 291 299 299 302 279 300 283 269 234 237 239 221 221 225 222 230 223 219 221 231 236 228 244 237 229 234 231 232 231 233 235
292 277 261 256 272 272 273 284 312 336 248 232 224 250 278 295 296 293 300 289 286 280 242 241 228 233 226 225 222 214 224 214 222 223 232 227 227 241 232 234 232 230 232 235 234
288 265 253 257 259 261 268 278 267 209 268 242 239 266 284 304 301 290 299 304 276 277 261 247 243 229 215 231 230 208 204 179 204 208 221 218 219 228 235 236 238 238 235 236 234
271 250 244 249 253 258 256 250 201 235 238 247 279 289 306 331 300 297 307 304 290 268 266 262 244 242 224 229 223 225 199 203 197 182 221 210 217 226 238 227 195 243 234 233 234
256 242 239 239 244 253 250 233 237 243 250 254 298 294 271 297 318 322 301 292 272 281 323 278 252 241 236 234 224 223 222 207 217 250 234 188 235 243 232 233 233 234 206 221 225
271 235 243 243 242 242 245 250 256 255 249 274 284 259 283 306 311 324 317 281 284 290 306 284 297 263 253 231 221 221 213 195 206 190 209 195 230 227 220 230 230 229 229 231 222
246 245 244 234 232 234 238 251 270 274 259 256 236 265 281 294 305 298 280 304 276 281 308 317 267 248 283 252 204 207 217 219 220 225 227 231 223 219 226 224 220 231 233 235 229
258 251 251 235 225 239 245 254 271 262 244 264 266 262 267 266 284 275 284 282 294 295 306 282 291 283 266 263 233 212 205 201 187 157 215 234 233 197 222 227 232 234 211 216 205
272 244 240 233 234 244 248 254 264 266 266 264 255 256 270 259 273 269 286 282 292 323 301 305 276 309 297 269 288 215 205 215 221 223 207 211 219 228 239 224 212 216 204 200 199
254 233 225 235 247 251 253 255 264 270 268 253 261 258 260 271 267 274 282 283 324 321 312 314 261 249 292 319 316 312 308 217 208 214 220 224 234 224 198 161 191 190 196 200 215
262 242 248 230 245 254 253 250 255 264 252 232 235 246 274 283 282 283 299 294 296 302 317 322 309 313 291 309 311 295 312 310 259 214 216 207 223 215 207 179 199 146 187 187 194
261 253 257 258 257 253 247 254 255 259 246 246 245 254 268 267 269 268 286 293 296 294 301 315 300 310 308 307 306 296 287 278 282 237 218 225 235 223 219 214 220 233 206 195 181
256 266 267 264 256 244 245 261 276 249 256 258 254 257 263 274 271 269 271 266 278 287 295 295 292 324 298 325 316 292 276 254 273 251 199 214 227 222 224 232 234 225 216 225 198